Regional Weather Roundup
Issued by NWS

Home | Current Version | Previous Version | Graphics & Text | Print | Product List | Glossary On
Versions: 1 2 3 4 5 6 7 8 9 10 11 12 13 14 15 16 17 18 19 20 21 22 23 24 25 26 27 28 29 30 31 32 33 34 35 36 37 38 39 40 41 42 43 44 45 46 47 48 49 50
000
ASUS43 KLSX 231359
RWRMO

WEATHER SUMMARY FOR MISSOURI
NATIONAL WEATHER SERVICE SPRINGFIELD MO
900 AM CDT SAT AUG 23 2014

NOTE: "FAIR" INDICATES FEW OR NO CLOUDS BELOW 12,000 FEET WITH NO
       SIGNIFICANT WEATHER AND/OR OBSTRUCTIONS TO VISIBILITY.
       CURRENT SKY AND/OR WEATHER CONDITIONS ARE NOT AVAILABLE FOR
       CHILLICOTHE AND FARMINGTON.

MOZ001>031-035>038-043-044-053-054-231500-
...NORTHERN AND WESTERN MISSOURI...

CITY           SKY/WX    TMP DP  RH WIND       PRES   REMARKS
KANSAS CTY INT MOSUNNY   81  69  67 S6        29.93F
KANSAS C DTWN  SUNNY     83  69  62 SE5       29.92S
LEE`S SUMMIT   SUNNY     80  70  71 VRB3      29.95R
ST JOSEPH      MOSUNNY   80  74  81 CALM      29.91S

$$
MOZ066>068-077>081-088>096-101>105-231500-
...SOUTHWEST MISSOURI...

CITY           SKY/WX    TMP DP  RH WIND       PRES   REMARKS
SPRINGFIELD    SUNNY     81  70  69 S8        30.02R
JOPLIN         MOSUNNY   83  69  62 S15G23    29.99R

$$
MOZ032>034-039>042-045>050-055>058-069>072-231500-
...CENTRAL MISSOURI...

CITY           SKY/WX    TMP DP  RH WIND       PRES   REMARKS
COLUMBIA       SUNNY     83  73  72 SW8       29.98S
JEFFERSON CITY SUNNY     83  72  69 SW5       29.97S
ROLLA          SUNNY     81  71  71 SW8       30.00S
SEDALIA        SUNNY     83  71  67 SW15G21   29.97S
OSAGE BEACH    SUNNY     82  72  69 SW8       29.99S

$$
MOZ051-052-059>065-231500-
...EAST CENTRAL MISSOURI...

CITY           SKY/WX    TMP DP  RH WIND       PRES   REMARKS
ST LOUIS INTL  MOSUNNY   86  74  67 W10       29.97R HX  94
SPIRIT OF STL  MOSUNNY   84  74  71 W8        29.96R HX  91
ST CHARLES     SUNNY     83  75  77 W6        29.95R HX  90

$$
MOZ072>076-082>087-097>100-106>115-231500-
...SOUTH CENTRAL AND SOUTHEAST MISSOURI...

CITY           SKY/WX    TMP DP  RH WIND       PRES   REMARKS
CAPE GIRARDEAU SUNNY     83  76  79 W7        29.98R HX  91
FARMINGTON     SUNNY     84  72  65 W8        30.02R
POPLAR BLUFF   SUNNY     83  74  74 CALM      29.98R
WEST PLAINS    MOSUNNY   80  73  79 W6        30.05R

$$


USA.gov is the U.S. government's official web portal to all federal, state and local government web resources and services.